Погода в Кузнецове

Россия / Республика Марий Эл     56°09′57″N   46°42′42″E
темп.,
°C
ветер,
м/с
пор.,
м/с
влажн.,
%
обл.,
%
осадки,
мм/ч
давл.,
гПа
погр.,
м
12 августа, пт
пт1200:00+14з11765 0.0 102411
03:00+14зюз12777 0.0 102411
06:00+15зюз2578100 0.0 1024142
09:00+20зсз345832 0.0 1024525
12:00+24з344441 0.0 10231441
15:00+25з464027 0.0 10221575
18:00+22зсз365836 0.0 1021181
21:00+17зюз33655 0.0 102141
13 августа, сб
сб1300:00+16з35715 0.0 102173
03:00+14з237819 0.0 102256
06:00+16зсз137761 0.0 1022102
09:00+21сз2362100 0.0 1022453
12:00+25сз335097 0.0 10211434
15:00+26ссз2343100 0.0 10201808
18:00+23ссв2257100 0.0 102030
21:00+18в1168100 0.0 102111
14 августа, вс
вс1400:00+17юв1170100 0.0 102111
03:00+16ю1173100 0.0 102111
06:00+18ю127221 0.0 102245
09:00+23ю2255100 0.0 1021486
12:00+26ююз214559 0.0 10211593
15:00+26юз2143100 0.0 10201872
18:00+24ю115751 0.0 102013
21:00+21юз0162100 0.0 102011
15 августа, пн
пн1500:00+20св116491 0.0 102114
03:00+19св1172100 0.0 102122
06:00+19всв1277100 0.0 102285
09:00+22всв2365100 0.0 1022418
12:00+27всв12477 0.0 10221603
15:00+24с2253100 0.0 102276
18:00+23св36608 0.0 1023197
21:00+18всв22750 0.0 102415
16 августа, вт
вт1600:00+16всв22810 0.0 102514
03:00+15всв22860 0.0 102613
06:00+16всв23790 0.0 102697
09:00+22всв33565 0.0 1026581
12:00+25вюв33425 0.0 10261655
15:00+26в23375 0.0 10251969
18:00+23всв35530 0.0 1025143
21:00+17в24695 0.0 102650